{"data":{"norad_id":63404,"epoch":"2026-09-19T21:05:03.744384Z","epoch_age_seconds":212435,"freshness":"STALE","line1":"1 63404U 25065F   26262.87851556  .00008325  00000+0  31160-3 0  9999","line2":"2 63404  42.9993  89.9724 0001347 269.8519  90.2178 15.27589361 82542","mean_motion":15.27589361,"eccentricity":0.0001347,"inclination_deg":42.9993,"raan_deg":89.9724,"arg_perigee_deg":269.8519,"mean_anomaly_deg":90.2178,"bstar":0.0003116,"rev_number":8254,"period_min":94.266171051187,"perigee_km":482.0968679897,"apogee_km":483.94526397268,"semimajor_km":6861.1580659812,"source":"CELESTRAK","updated_at":"2026-09-21T09:00:34.978739Z"}}